SV2BBO-2 Thessaloniki GR current weather conditions

sailwx.info

Wind from 049

Air temperature 18.3° C
Dewpoint 1.3° C

Last reported at 2016-Sep-27 03:48 UTC.
Time now 2016-Sep-27 05:24 UTC

Location: N 40°38' E 022°57'.
View on Google Maps.

See reports from other nearby stations

  
Tides and Currents Weather Stations Pressure Air Temp Water Temp Dewpoint Dewpoint Depression Visibility Wind Speed Wind Dir Waves Ship Positions
date/time (UTC)wind fromknots sea level pressurealtimeterstation pressurevisibilityair tempwater tempwave heightnotes
2016-Sep-27 04:48 115 2 gusting 2 17.8
2016-Sep-27 04:38 084 0 gusting 3 18.3
2016-Sep-27 04:28 085 18.3
2016-Sep-27 04:18 118 18.3
2016-Sep-27 04:08 118 18.3
2016-Sep-27 03:58 049 18.3
2016-Sep-27 03:48 049 18.3
2016-Sep-27 03:38 045 18.3
2016-Sep-27 03:28 041 18.3
2016-Sep-27 03:18 041 18.3
2016-Sep-27 03:08 041 18.3
2016-Sep-27 02:58 041 0 gusting 4 17.8
2016-Sep-27 02:48 357 18.3
2016-Sep-27 02:38 357 17.8
2016-Sep-27 02:28 357 17.8
2016-Sep-27 02:18 357 18.3
2016-Sep-27 02:08 357 18.3
2016-Sep-27 01:58 353 18.3
2016-Sep-27 01:48 353 18.3
2016-Sep-27 01:38 353 2 gusting 3 18.3
2016-Sep-27 01:28 030 3 gusting 5 18.3
2016-Sep-27 01:18 005 3 gusting 5 18.3
2016-Sep-27 01:08 302 2 gusting 5 18.9
2016-Sep-27 00:58 355 3 gusting 5 18.9
2016-Sep-27 00:48 357 3 gusting 5 18.3
2016-Sep-27 00:38 319 3 gusting 4 18.9
2016-Sep-27 00:28 354 3 gusting 5 18.9
2016-Sep-27 00:18 335 18.9
2016-Sep-27 00:08 335 18.9
2016-Sep-26 23:58 303 4 gusting 5 18.9
2016-Sep-26 23:48 321 3 gusting 4 19.4
2016-Sep-26 23:38 025 1 gusting 2 19.4
2016-Sep-26 23:28 025 19.4
2016-Sep-26 23:18 313 0 gusting 3 19.4
2016-Sep-26 23:08 040 4 gusting 5 19.4
2016-Sep-26 22:58 040 5 gusting 6 18.9
2016-Sep-26 22:48 068 8 gusting 10 18.9
2016-Sep-26 22:38 050 6 gusting 7 18.9
2016-Sep-26 22:28 063 6 gusting 9 18.9
2016-Sep-26 22:18 055 6 gusting 8 18.9
2016-Sep-26 22:08 053 7 gusting 10 18.9
2016-Sep-26 21:58 059 9 gusting 11 18.9
2016-Sep-26 21:48 055 6 gusting 10 18.9
2016-Sep-26 21:38 039 6 gusting 9 19.4
2016-Sep-26 21:28 032 5 gusting 7 20.0
2016-Sep-26 21:18 052 3 gusting 3 19.4
2016-Sep-26 21:08 063 2 gusting 4 19.4
2016-Sep-26 20:58 057 20.0
2016-Sep-26 20:48 058 1 gusting 2 20.0
2016-Sep-26 20:38 058 0 gusting 2 20.0
2016-Sep-26 20:28 044 2 gusting 3 20.0
2016-Sep-26 20:18 044 2 gusting 3 20.0
2016-Sep-26 20:08 056 20.6
2016-Sep-26 19:58 056 1 gusting 2 20.6
2016-Sep-26 19:48 072 20.6
2016-Sep-26 19:38 061 0 gusting 3 20.6
2016-Sep-26 19:28 047 20.6
2016-Sep-26 19:18 044 3 gusting 4 20.6
2016-Sep-26 19:08 047 0 20.6
2016-Sep-26 18:58 067 1 gusting 2 21.1
2016-Sep-26 18:48 103 21.1
2016-Sep-26 18:38 103 0 gusting 3 21.7
2016-Sep-26 18:28 090 21.7
2016-Sep-26 18:18 096 2 gusting 2 21.7
2016-Sep-26 18:08 101 21.7
2016-Sep-26 17:58 119 21.7
2016-Sep-26 17:48 110 2 gusting 2 21.7
2016-Sep-26 17:38 116 0 gusting 3 21.7
2016-Sep-26 17:28 098 2 gusting 3 21.7
2016-Sep-26 17:18 139 3 gusting 7 21.7
2016-Sep-26 17:08 136 0 gusting 3 22.2
2016-Sep-26 16:58 145 2 gusting 2 22.2
2016-Sep-26 16:48 147 3 gusting 5 22.8
2016-Sep-26 16:38 132 4 gusting 3 22.8
2016-Sep-26 16:28 155 2 gusting 5 22.2
2016-Sep-26 16:18 167 1 gusting 3 22.8
2016-Sep-26 16:08 170 3 gusting 6 22.8
2016-Sep-26 15:58 170 3 gusting 5 22.8
2016-Sep-26 15:48 135 3 gusting 3 22.8
2016-Sep-26 15:38 122 4 gusting 6 22.8
2016-Sep-26 15:28 122 4 gusting 7 23.3
2016-Sep-26 15:18 168 5 gusting 7 23.3
2016-Sep-26 15:08 181 5 gusting 6 23.9
2016-Sep-26 14:58 183 4 gusting 6 23.3
2016-Sep-26 14:48 207 4 gusting 7 23.3
2016-Sep-26 14:38 205 6 gusting 6 23.3
2016-Sep-26 14:28 165 5 gusting 6 23.9
2016-Sep-26 14:18 195 4 gusting 5 23.9
2016-Sep-26 14:08 211 5 gusting 5 23.9
2016-Sep-26 13:58 186 4 gusting 7 23.9
2016-Sep-26 13:48 181 4 gusting 5 23.9
2016-Sep-26 13:38 210 4 gusting 6 23.3
2016-Sep-26 13:28 193 4 gusting 5 23.3
2016-Sep-26 13:18 221 5 gusting 6 23.3
2016-Sep-26 13:08 213 3 gusting 6 23.3
2016-Sep-26 12:58 210 4 gusting 5 22.8
2016-Sep-26 12:48 219 3 gusting 6 22.8
2016-Sep-26 12:38 283 2 gusting 5 22.8
2016-Sep-26 12:28 272 3 gusting 5 22.8
2016-Sep-26 12:18 220 2 gusting 3 22.8
2016-Sep-26 12:08 228 2 gusting 2 22.8
2016-Sep-26 11:58 269 3 gusting 6 22.8
2016-Sep-26 11:48 232 4 gusting 5 22.8
2016-Sep-26 11:38 228 3 gusting 3 22.8
2016-Sep-26 11:28 219 4 gusting 5 22.8
2016-Sep-26 11:18 260 4 gusting 4 22.8
2016-Sep-26 11:08 184 3 gusting 5 22.8
2016-Sep-26 10:58 245 4 gusting 5 22.8
2016-Sep-26 10:48 226 4 gusting 5 22.8
2016-Sep-26 10:38 228 5 gusting 5 22.8
2016-Sep-26 10:28 199 5 gusting 5 22.8
2016-Sep-26 10:18 199 3 gusting 5 22.8
2016-Sep-26 10:08 200 3 gusting 6 22.8
2016-Sep-26 09:58 217 4 gusting 6 22.8
2016-Sep-26 09:48 229 3 gusting 3 22.8
2016-Sep-26 09:38 215 4 gusting 5 22.8
2016-Sep-26 09:28 267 4 gusting 5 22.2
2016-Sep-26 09:18 264 2 gusting 4 21.7
2016-Sep-26 09:08 293 3 gusting 5 21.7
2016-Sep-26 08:58 262 1 gusting 3 21.7
2016-Sep-26 08:48 248 2 gusting 3 21.7
2016-Sep-26 08:38 273 3 gusting 5 21.7
2016-Sep-26 08:28 264 2 gusting 4 21.7
2016-Sep-26 08:18 299 2 gusting 4 21.7
2016-Sep-26 08:08 320 2 gusting 3 21.1
2016-Sep-26 07:58 316 4 gusting 6 21.1
2016-Sep-26 07:48 327 2 gusting 3 21.1
2016-Sep-26 07:38 299 3 gusting 5 21.1
2016-Sep-26 07:28 322 3 gusting 4 21.1
2016-Sep-26 07:18 336 3 gusting 4 21.1
2016-Sep-26 07:08 295 3 gusting 5 21.1
2016-Sep-26 06:58 318 2 gusting 3 20.6
2016-Sep-26 06:48 354 4 gusting 3 20.6
2016-Sep-26 06:38 20.6
2016-Sep-26 06:28 299 3 gusting 5 20.6
2016-Sep-26 06:18 345 3 gusting 5 20.6
2016-Sep-26 06:08 310 3 gusting 4 20.6
2016-Sep-26 05:58 352 2 gusting 3 20.0
2016-Sep-26 05:48 329 3 gusting 3 20.0
2016-Sep-26 05:38 307 3 gusting 4 19.4
2016-Sep-26 05:28 047 4 gusting 5 19.4
2016-Sep-26 05:18 045 3 gusting 4 20.0
2016-Sep-26 05:08 19.4
2016-Sep-26 04:58 349 19.4
2016-Sep-26 04:48 351 3 gusting 4 19.4
2016-Sep-26 04:38 085 1 gusting 2 19.4
2016-Sep-26 04:28 050 0 gusting 3 19.4
2016-Sep-26 04:18 052 3 gusting 4 18.9
2016-Sep-26 04:08 039 6 gusting 6 18.9
2016-Sep-26 03:58 018 6 gusting 8 18.9
2016-Sep-26 03:48 060 3 gusting 4 18.9
2016-Sep-26 03:38 024 3 gusting 7 18.9
2016-Sep-26 03:28 354 5 gusting 5 18.9
2016-Sep-26 03:18 323 3 gusting 4 19.4
2016-Sep-26 03:08 011 1 gusting 4 19.4
2016-Sep-26 02:58 052 3 gusting 6 18.9
2016-Sep-26 02:48 025 4 gusting 4 18.9
2016-Sep-26 02:38 023 3 gusting 5 18.9
2016-Sep-26 02:28 022 4 gusting 5 18.9
2016-Sep-26 02:18 034 6 gusting 6 18.3
2016-Sep-26 02:08 047 6 gusting 7 18.9
2016-Sep-26 01:58 055 4 gusting 6 19.4
2016-Sep-26 01:48 016 6 gusting 6 19.4
2016-Sep-26 01:38 357 3 gusting 6 18.9
2016-Sep-26 01:28 056 3 gusting 5 18.9
2016-Sep-26 01:18 016 3 gusting 3 18.9
2016-Sep-26 01:08 027 3 gusting 4 18.9
2016-Sep-26 00:58 009 6 gusting 6 18.9
2016-Sep-26 00:48 012 4 gusting 5 18.9
2016-Sep-26 00:38 002 5 gusting 6 18.9
2016-Sep-26 00:28 057 3 gusting 4 18.3
2016-Sep-26 00:18 18.3
2016-Sep-26 00:08 047 5 gusting 5 18.3
2016-Sep-25 23:58 010 5 gusting 6 18.9
2016-Sep-25 23:48 001 4 gusting 8 18.9
2016-Sep-25 23:38 326 3 gusting 4 18.9
2016-Sep-25 23:28 049 1 18.9
2016-Sep-25 23:18 049 0 gusting 3 18.9
2016-Sep-25 23:08 045 18.9
2016-Sep-25 22:58 035 3 gusting 4 18.3
2016-Sep-25 22:48 045 3 gusting 3 17.8
2016-Sep-25 22:38 047 3 gusting 3 19.4
2016-Sep-25 22:28 307 3 gusting 4 20.0
2016-Sep-25 22:18 316 1 gusting 5 20.0
2016-Sep-25 22:08 297 4 gusting 5 20.6
2016-Sep-25 21:58 331 3 gusting 5 20.6
2016-Sep-25 21:48 013 2 gusting 2 20.6
2016-Sep-25 21:38 357 2 gusting 4 20.6
2016-Sep-25 21:28 010 4 gusting 5 20.6
2016-Sep-25 21:18 004 4 gusting 6 20.6
2016-Sep-25 21:08 357 5 gusting 6 20.6
2016-Sep-25 20:58 20.6
2016-Sep-25 20:48 020 3 gusting 4 20.6
2016-Sep-25 20:37 027 2 gusting 3 20.6
2016-Sep-25 20:27 063 2 gusting 3 20.6
2016-Sep-25 20:17 063 0 gusting 3 21.1
2016-Sep-25 20:07 063 21.1
2016-Sep-25 19:57 063 2 gusting 2 21.1
2016-Sep-25 19:47 063 21.1
2016-Sep-25 19:37 067 2 gusting 3 21.1
2016-Sep-25 19:27 068 2 gusting 2 21.1
2016-Sep-25 19:17 068 21.1
2016-Sep-25 19:07 071 2 gusting 3 21.1
2016-Sep-25 18:57 121 21.7
2016-Sep-25 18:47 121 2 gusting 3 21.7
2016-Sep-25 18:37 121 0 gusting 3 21.7
2016-Sep-25 18:27 121 21.7
2016-Sep-25 18:17 121 21.7
2016-Sep-25 18:07 160 22.2
2016-Sep-25 17:57 082 21.7
2016-Sep-25 17:47 124 2 gusting 3 21.7
2016-Sep-25 17:37 107 0 gusting 3 22.2
2016-Sep-25 17:27 118 2 gusting 3 22.2
2016-Sep-25 17:17 076 22.2
2016-Sep-25 17:07 148 2 gusting 3 22.8
2016-Sep-25 16:57 141 3 gusting 5 22.8
2016-Sep-25 16:47 164 3 gusting 5 22.8
2016-Sep-25 16:37 181 3 gusting 3 22.8
2016-Sep-25 16:27 197 3 gusting 5 22.8
2016-Sep-25 16:17 196 4 gusting 7 22.8
2016-Sep-25 16:07 168 5 gusting 6 22.8
2016-Sep-25 15:57 187 5 gusting 6 23.3
2016-Sep-25 15:47 194 3 gusting 4 23.3
2016-Sep-25 15:37 228 4 gusting 5 23.3
2016-Sep-25 15:27 234 4 gusting 5 23.3
2016-Sep-25 15:17 291 3 gusting 3 23.9
2016-Sep-25 15:07 206 2 gusting 3 23.3
2016-Sep-25 14:57 196 3 gusting 5 23.3
2016-Sep-25 14:47 206 4 gusting 5 23.3
2016-Sep-25 14:37 226 3 gusting 5 23.3
2016-Sep-25 14:27 220 4 gusting 6 23.9
2016-Sep-25 14:17 231 3 gusting 4 23.9
2016-Sep-25 14:07 228 6 gusting 6 23.9
2016-Sep-25 13:57 241 6 gusting 7 23.9
2016-Sep-25 13:47 208 5 gusting 8 23.9
2016-Sep-25 13:37 209 5 gusting 6 23.9
2016-Sep-25 13:27 194 5 gusting 8 23.9
2016-Sep-25 13:17 224 5 gusting 6 23.9
2016-Sep-25 13:07 211 6 gusting 6 23.9
2016-Sep-25 12:57 225 5 gusting 7 23.9
2016-Sep-25 12:47 171 5 gusting 7 24.4
2016-Sep-25 12:37 222 5 gusting 7 23.9
2016-Sep-25 12:27 196 3 gusting 6 23.9
2016-Sep-25 12:17 201 5 gusting 6 23.3
2016-Sep-25 12:07 245 4 gusting 6 23.3
2016-Sep-25 11:57 228 4 gusting 6 23.3
2016-Sep-25 11:47 205 4 gusting 7 23.3
2016-Sep-25 11:37 227 4 gusting 6 23.3
2016-Sep-25 11:27 285 5 gusting 6 23.3
2016-Sep-25 11:17 288 4 gusting 4 23.3
2016-Sep-25 11:07 274 3 gusting 5 23.3
2016-Sep-25 10:57 292 6 gusting 5 22.8
2016-Sep-25 10:47 296 5 gusting 8 22.8
2016-Sep-25 10:37 311 5 gusting 8 22.8
2016-Sep-25 10:27 283 5 gusting 7 22.8
2016-Sep-25 10:17 306 5 gusting 4 22.8
2016-Sep-25 10:07 325 5 gusting 7 22.8
2016-Sep-25 09:57 321 4 gusting 7 22.8
2016-Sep-25 09:47 301 6 gusting 9 22.8
2016-Sep-25 09:37 332 6 gusting 7 22.8
2016-Sep-25 09:27 309 1 gusting 2 22.8
2016-Sep-25 09:17 299 5 gusting 5 22.2
2016-Sep-25 09:07 346 4 gusting 5 22.2
2016-Sep-25 08:57 343 5 gusting 6 22.2
2016-Sep-25 08:47 296 3 gusting 6 22.2
2016-Sep-25 08:37 017 4 gusting 7 21.7
2016-Sep-25 08:27 003 4 gusting 5 21.7
2016-Sep-25 08:17 303 3 gusting 5 21.7
2016-Sep-25 08:07 304 2 gusting 6 21.7
2016-Sep-25 07:57 322 4 gusting 5 21.7
2016-Sep-25 07:47 030 3 gusting 3 21.7
2016-Sep-25 07:37 336 4 gusting 4 21.7
2016-Sep-25 07:27 307 4 gusting 5 21.1
2016-Sep-25 07:17 358 4 gusting 6 21.1
2016-Sep-25 07:07 327 3 gusting 4 21.1
2016-Sep-25 06:57 349 3 gusting 3 21.1
2016-Sep-25 06:47 296 0 gusting 3 21.1
2016-Sep-25 06:37 095 0 gusting 2 20.6
2016-Sep-25 06:27 095 20.0
2016-Sep-25 06:17 095 2 gusting 3 19.4
2016-Sep-25 06:07 100 2 gusting 3 19.4
2016-Sep-25 05:57 113 1 gusting 2 19.4
2016-Sep-25 05:47 164 0 gusting 2 19.4
2016-Sep-25 05:37 159 3 gusting 3 19.4
2016-Sep-25 05:27 100 18.9
2016-Sep-25 05:17 100 18.9
2016-Sep-25 05:07 100 18.9